Home > Weather > Pointe-Noire > Past weeks

Flag for Congo Weather for the Past 2 Weeks in Pointe-Noire, Congo

Now
81 °F

Passing clouds.


Feels Like: 88 °F
Forecast: 80 / 85 °F
Wind: 7 mph from East

Location: Pointe Airport-Noire

Current Time: May 1, 2016 at 4:00:17 AM

Latest Report: May 1, 2016 at 3:00 AM


Visibility: 5 mi

Pressure: 29.80 "Hg

Humidity: 94%

Dew Point: 79 °F

Location of Pointe-NoireLocation

Historic Weather in Pointe-Noire — Graph

°F

Pointe-Noire Temperature Yesterday

Maximum temperature yesterday: 88 °F (at 12:00 PM)
Minimum temperature yesterday: 75 °F (at 2:00 AM)
Average temperature yesterday: 81 °F

High & Low Weather Summary for the Past Weeks

 TemperatureHumidityPressure
High90 °F (Apr 19, 12:00 PM)100% (Apr 16, 7:00 AM)29.98 "Hg (Apr 16, 7:00 AM)
Low75 °F (Apr 16, 9:00 AM)63% (Apr 21, 12:00 PM)29.71 "Hg (Apr 26, 5:00 PM)
Average82 °F87%29.85 "Hg
* Reported Apr 16 2:00 AM — May 1 2:00 AM, Pointe-Noire, Weather by CustomWeather, © 2016

Note: Actual official high and low records may vary slightly from our data, if they occured in-between our weather recording intervals... More about our weather records

Advertising

Pointe-Noire Weather History for the Previous 24 Hours

Scroll right to see more
 ConditionsComfort  
Time TempWeatherWind HumidityBarometerVisibility
2:00 AM
Sun, May 1
81 °FPassing clouds.5 mph94%29.80 "HgN/A
1:00 AM81 °FPassing clouds.3 mph94%29.83 "HgN/A
12:00 AM81 °FPassing clouds.No wind94%29.83 "HgN/A
11:00 PM
Sat, Apr 30
82 °FPassing clouds.2 mph89%29.83 "HgN/A
10:00 PM82 °FPassing clouds.2 mph89%29.86 "HgN/A
9:00 PM82 °FPassing clouds.3 mph89%29.83 "HgN/A
8:00 PM82 °FPassing clouds.5 mph89%29.83 "HgN/A
7:00 PM82 °FPassing clouds.5 mph89%29.80 "HgN/A
6:00 PM82 °FPassing clouds.8 mph89%29.80 "HgN/A
5:00 PM84 °FPassing clouds.9 mph79%29.80 "HgN/A
4:00 PM86 °FPassing clouds.8 mph75%29.80 "HgN/A
3:00 PM88 °FPassing clouds.9 mph70%29.80 "HgN/A
2:00 PM88 °FScattered clouds.10 mph70%29.83 "HgN/A
1:00 PM88 °FScattered clouds.10 mph75%29.83 "HgN/A
12:00 PM88 °FScattered clouds.7 mph75%29.86 "HgN/A
11:00 AM86 °FPassing clouds.8 mph75%29.89 "HgN/A
10:00 AM82 °FPassing clouds.7 mph84%29.89 "Hg5 mi
9:00 AM79 °FPassing clouds.3 mph89%29.89 "Hg5 mi
8:00 AM75 °FScattered clouds.7 mph94%29.89 "Hg5 mi
7:00 AM75 °FPartly sunny.5 mph94%29.86 "Hg5 mi
6:00 AM75 °FPassing clouds.3 mph94%29.83 "Hg5 mi
5:00 AM75 °FPassing clouds.7 mph94%29.83 "Hg5 mi
4:00 AM75 °FPassing clouds.7 mph94%29.80 "Hg5 mi
Weather by CustomWeather, © 2016

See weather overviewHow to use our weather pages